[[{"header":{"parameterUnit":"m.s-1","parameterCategory":2,"la1":30.2991,"la2":30.254,"lo1":-89.0895,"lo2":-89.0444,"dy":0.0017,"dx":0.0017,"nx":28,"ny":28,"refTime":"2025-11-06T09:00:00:Z","depth":"0","parameterNumber":2,"parameterNumberName":"U-component_of_CURRENTS"},"data":[0,0,0,0,0,0,0,0,0,0,0,0,0,0,0,0,0,0,0,0,0,0,0,0,0,0,0,0,0,0,0,0,0,0,0,0,0,0,0,0,0,0,0,0,0,0,0,0,0,0,0,0,0,0,0,0,0,0,0.166,0.1661,0,0.168,0.168,0.1681,0.1685,0.1685,0.1685,0.1685,0.168,0.168,0.168,0,0,0,0,0,0,0,0,0,0,0,0,0,0.1592,0.1593,0.166,0.1661,0.1661,0.168,0.168,0.1681,0.1685,0.1685,0.1685,0.1685,0.168,0.168,0.168,0,0,0,0,0,0,0,0,0,0,0,0,0,0.1615,0.1593,0.166,0.1667,0.1668,0.168,0.168,0.1681,0.1685,0.1685,0.1685,0.1685,0.168,0.168,0.1679,0.1675,0,0,0.1679,0.1678,0,0,0,0,0,0,0,0,0.1614,0.1618,0.1666,0.1667,0.1668,0.1682,0.1655,0.1678,0.1685,0.1676,0.1685,0.1685,0.168,0.168,0.168,0.1675,0.1675,0.1679,0.1678,0.1678,0.1678,0,0,0,0,0,0,0,0.1613,0.1617,0.1666,0.1666,0.1668,0.1658,0.1662,0.1659,0.1675,0.1677,0.1678,0.1684,0.168,0.168,0.168,0.1675,0.1679,0.1678,0.1678,0.1678,0.1682,0.1683,0,0,0,0,0,0,0.1617,0.1616,0.1665,0.1667,0.1644,0.166,0.1664,0.1676,0.1675,0.1676,0.1684,0.1684,0.1681,0.168,0.168,0.1684,0.1678,0.1678,0.1678,0.1682,0.1682,0.1683,0,0,0,0,0,0,0.1615,0.1621,0.1664,0.1643,0.1648,0.1661,0.1675,0.1676,0.1678,0.1681,0.1681,0.1685,0.1681,0.168,0.1683,0.1683,0.1678,0.1677,0.1682,0.1682,0.1683,0.1686,0,0,0,0,0,0,0.1613,0.1621,0.1626,0.1644,0.165,0.1672,0.1675,0.1677,0.1683,0.1683,0.1682,0.1682,0.1681,0.1684,0.1683,0.1683,0.1677,0.1681,0.1682,0.1683,0.1686,0.1687,0.1688,0,0,0,0,0,0.1611,0.162,0.1626,0.1632,0.1658,0.1672,0.1674,0.1682,0.1683,0.1683,0.1687,0.1682,0.1687,0.1684,0.1682,0.1683,0.1681,0.1682,0.1682,0.1685,0.1687,0.1688,0,0,0,0,0,0,0.1587,0.1623,0.1629,0.1647,0.1659,0.1674,0.1676,0.1682,0.1684,0.1685,0.1685,0.1685,0.1689,0.1686,0.1683,0.1687,0.1683,0.1684,0.1686,0.1687,0.1688,0.1692,0.1677,0,0,0,0,0,0.1586,0.1606,0.163,0.1642,0.1649,0.1662,0.1667,0.1674,0.1682,0.1683,0.1684,0.1686,0.169,0.1689,0.1691,0.169,0.1779,0.1691,0.1692,0.1692,0.1696,0.1818,0.1832,0.1685,0.1685,0.1685,0,0,0.1579,0.1602,0.1611,0.1638,0.1647,0.1661,0.1664,0.1675,0.1681,0.1682,0.1686,0.169,0.1692,0.1695,0.1696,0.1692,0.1796,0.1693,0.1694,0.1697,0.1821,0.1836,0.1849,0.1686,0.1685,0.1685,0,0,0.1579,0.1595,0.1614,0.1627,0.1648,0.1656,0.166,0.1676,0.1678,0.1686,0.169,0.1694,0.1697,0.1699,0.1701,0.1707,0.1799,0.1708,0.1712,0.1831,0.1845,0.1858,0.2064,0.2095,0.1706,0.1706,0.1706,0,0.1567,0.1598,0.1617,0.1637,0.1645,0.1655,0.1667,0.1672,0.1685,0.1693,0.1689,0.1715,0.1699,0.1719,0.1711,0.1708,0.1831,0.1706,0.1836,0.185,0.1863,0.207,0.2104,0.1706,0.1706,0.1706,0.1706,0,0.159,0.1606,0.1615,0.1647,0.1654,0.1665,0.1678,0.1684,0.1688,0.1701,0.1723,0.172,0.1748,0.1729,0.1714,0.1785,0.1867,0.183,0.1838,0.1879,0.2094,0.213,0.1706,0.1706,0.1706,0.1706,0,0,0.1585,0.1624,0.1627,0.164,0.166,0.1671,0.1679,0.1697,0.1733,0.1728,0.1793,0.1748,0.1773,0.1776,0.1771,0.1833,0.203,0.1866,0.1873,0.2082,0.2393,0.2397,0.2438,0.2032,0.2036,0.2039,0.2534,0,0.1595,0.1629,0.1645,0.1664,0.1678,0.1686,0.1706,0.1723,0.1748,0.1819,0.1816,0.1879,0.1788,0.1836,0.1874,0.2005,0.2113,0.1905,0.2311,0.2325,0.233,0.2472,0.2422,0.2851,0.2569,0.2575,0.258,0,0.1619,0.1637,0.1658,0.1687,0.1696,0.1711,0.1756,0.1778,0.1856,0.1893,0.1939,0.1987,0.208,0.2006,0.225,0.2139,0.2263,0.2347,0.2368,0.2386,0.2391,0.2748,0.2927,0.2853,0.2635,0.2631,0.2627,0,0.1618,0.1648,0.1661,0.1669,0.1706,0.1719,0.1742,0.1799,0.1862,0.1977,0.2086,0.2167,0.2307,0.2413,0.2555,0.2453,0.2873,0.2768,0.2901,0.2908,0.2947,0.2947,0.3099,0.2958,0.2957,0.2955,0.2954,0,0.1631,0.1648,0.1666,0.1676,0.1722,0.1734,0.1811,0.1849,0.1971,0.21,0.2145,0.2307,0.2417,0.2642,0.2702,0.2959,0.3019,0.2962,0.3032,0.2952,0.2947,0.2942,0.2863,0.2974,0.297,0.2966,0.2963,0,0.1658,0.1654,0.1688,0.1716,0.1726,0.1771,0.1871,0.1968,0.2053,0.2249,0.232,0.2531,0.2812,0.2944,0.3218,0.3216,0.3344,0.347,0.3407,0.3454,0.34,0.3322,0.3439,0.3325,0.3715,0.3718,0.3721,0,0.1691,0.1712,0.1732,0.1787,0.1809,0.1872,0.1954,0.201,0.2127,0.2384,0.252,0.2836,0.3032,0.3453,0.3543,0.3757,0.3549,0.3817,0.3529,0.3444,0.3413,0.3195,0.307,0.3657,0.3658,0.366,0.3661,0,0.1809,0.1807,0.1853,0.1911,0.1987,0.2055,0.2157,0.2232,0.2352,0.2512,0.2769,0.2941,0.3331,0.3529,0.379,0.3859,0.3627,0.3848,0.378,0.3401,0.316,0.3069,0.3342,0.3674,0.3672,0.3672,0.3671,0.367,0.1957,0.1997,0.204,0.2097,0.2169,0.2225,0.2271,0.2387,0.2519,0.2706,0.2887,0.3111,0.3439,0.3766,0.3826,0.3902,0.3738,0.3803,0.3752,0.3565,0.3303,0.3622,0.3967,0.3967,0.3967,0.3968,0.3968,0,0.2122,0.2146,0.2236,0.2273,0.2336,0.2323,0.2418,0.2453,0.2562,0.276,0.2922,0.3249,0.3501,0.3706,0.3913,0.383,0.3593,0.3747,0.3429,0.3328,0.37,0.3535,0.3772,0.3772,0.3772,0.3772,0.3772,0.3773,0.2237,0.2314,0.2301,0.2398,0.2424,0.2457,0.2477,0.2519,0.2618,0.2782,0.2933,0.3069,0.3423,0.3802,0.3852,0.3761,0.3425,0.3358,0.3245,0.3516,0.3513,0.3511,0.3336,0.3528,0.3528,0.2749,0.2744,0.274]},{"header":{"parameterUnit":"m.s-1","parameterCategory":2,"la1":30.2991,"la2":30.254,"lo1":-89.0895,"lo2":-89.0444,"dy":0.0017,"dx":0.0017,"nx":28,"ny":28,"refTime":"2025-11-06T09:00:00:Z","depth":"0","parameterNumber":3,"parameterNumberName":"V-component_of_CURRENTS"},"data":[0,0,0,0,0,0,0,0,0,0,0,0,0,0,0,0,0,0,0,0,0,0,0,0,0,0,0,0,0,0,0,0,0,0,0,0,0,0,0,0,0,0,0,0,0,0,0,0,0,0,0,0,0,0,0,0,0,0,-0.0227,-0.0228,0,-0.0263,-0.0264,-0.0264,-0.0279,-0.0279,-0.0279,-0.0279,-0.032,-0.0322,-0.0323,0,0,0,0,0,0,0,0,0,0,0,0,0,-0.0194,-0.0194,-0.0227,-0.0228,-0.0228,-0.0263,-0.0264,-0.0264,-0.0279,-0.0279,-0.0279,-0.0279,-0.032,-0.0321,-0.0323,0,0,0,0,0,0,0,0,0,0,0,0,0,-0.0217,-0.0194,-0.0227,-0.024,-0.0241,-0.0263,-0.0264,-0.0264,-0.0279,-0.0279,-0.0279,-0.0279,-0.032,-0.0321,-0.0323,-0.0336,0,0,-0.0328,-0.0329,0,0,0,0,0,0,0,0,-0.0215,-0.0218,-0.0238,-0.0239,-0.0241,-0.0267,-0.0267,-0.0289,-0.0279,-0.0265,-0.0279,-0.0279,-0.0303,-0.0306,-0.0313,-0.0338,-0.034,-0.0329,-0.033,-0.033,-0.0331,0,0,0,0,0,0,0,-0.0214,-0.0217,-0.0242,-0.0238,-0.024,-0.0251,-0.0254,-0.0271,-0.0284,-0.0266,-0.0267,-0.0271,-0.0304,-0.0311,-0.0314,-0.034,-0.0329,-0.033,-0.0331,-0.0332,-0.0394,-0.0395,0,0,0,0,0,0,-0.0208,-0.0215,-0.024,-0.0243,-0.0228,-0.0252,-0.0255,-0.0259,-0.0284,-0.0288,-0.0271,-0.0272,-0.0308,-0.0312,-0.0316,-0.035,-0.033,-0.0332,-0.0333,-0.0394,-0.0394,-0.0395,0,0,0,0,0,0,-0.0207,-0.021,-0.0239,-0.023,-0.0234,-0.0252,-0.0256,-0.0259,-0.0267,-0.0288,-0.0292,-0.0276,-0.0309,-0.0313,-0.0335,-0.0351,-0.0333,-0.0334,-0.0393,-0.0394,-0.0395,-0.0407,0,0,0,0,0,0,-0.0206,-0.021,-0.021,-0.0229,-0.0234,-0.0253,-0.0256,-0.026,-0.0269,-0.027,-0.0293,-0.0297,-0.0309,-0.0332,-0.0337,-0.0353,-0.0336,-0.0392,-0.0393,-0.0394,-0.0406,-0.0408,-0.041,0,0,0,0,0,-0.0205,-0.0208,-0.021,-0.0213,-0.0235,-0.0254,-0.0257,-0.027,-0.027,-0.0276,-0.0291,-0.0296,-0.0343,-0.0334,-0.0339,-0.0356,-0.0392,-0.0393,-0.0394,-0.0405,-0.0408,-0.041,0,0,0,0,0,0,-0.0192,-0.0211,-0.0213,-0.0221,-0.0236,-0.0256,-0.0263,-0.0269,-0.0286,-0.0287,-0.0303,-0.0309,-0.0335,-0.0342,-0.0332,-0.0377,-0.0368,-0.0371,-0.0374,-0.0377,-0.0379,-0.0374,-0.0337,0,0,0,0,0,-0.0189,-0.0198,-0.0215,-0.0222,-0.0228,-0.0244,-0.0253,-0.0261,-0.0278,-0.0285,-0.0302,-0.0321,-0.0345,-0.0357,-0.0376,-0.0399,-0.0361,-0.0414,-0.0416,-0.0418,-0.0417,-0.0376,-0.0373,-0.04,-0.04,-0.04,0,0,-0.0186,-0.0197,-0.0202,-0.022,-0.0231,-0.0247,-0.0249,-0.0263,-0.0279,-0.0288,-0.0314,-0.0329,-0.0352,-0.0381,-0.0394,-0.0389,-0.0383,-0.0419,-0.0421,-0.0419,-0.0377,-0.0374,-0.0371,-0.04,-0.04,-0.04,0,0,-0.0188,-0.0193,-0.0203,-0.0216,-0.0234,-0.0247,-0.025,-0.0271,-0.0283,-0.0307,-0.0322,-0.0347,-0.0375,-0.0402,-0.0418,-0.0443,-0.0396,-0.0446,-0.0454,-0.0414,-0.0411,-0.0408,-0.0322,-0.0311,-0.0447,-0.0447,-0.0447,0,-0.0181,-0.0196,-0.0208,-0.0222,-0.0232,-0.0247,-0.0259,-0.0279,-0.0305,-0.0306,-0.0316,-0.0351,-0.039,-0.0415,-0.0442,-0.045,-0.0393,-0.0442,-0.0415,-0.0411,-0.0408,-0.0321,-0.0309,-0.0448,-0.0448,-0.0448,-0.0448,0,-0.0193,-0.0205,-0.0212,-0.0235,-0.0247,-0.026,-0.0285,-0.0297,-0.0309,-0.0319,-0.0336,-0.0377,-0.0382,-0.0419,-0.0451,-0.0453,-0.0405,-0.0419,-0.0403,-0.0406,-0.0314,-0.0301,-0.0449,-0.0449,-0.0448,-0.0448,0,0,-0.0176,-0.0213,-0.0214,-0.0213,-0.0253,-0.0252,-0.0288,-0.0304,-0.0268,-0.0328,-0.0278,-0.0394,-0.038,-0.0398,-0.0425,-0.0433,-0.0382,-0.0423,-0.042,-0.0327,-0.0238,-0.0217,-0.02,-0.0377,-0.0376,-0.0375,-0.017,0,-0.0179,-0.0195,-0.0223,-0.0231,-0.0234,-0.026,-0.0264,-0.0278,-0.0271,-0.022,-0.0283,-0.0239,-0.0378,-0.0332,-0.0384,-0.0346,-0.0353,-0.0433,-0.0259,-0.0253,-0.0227,-0.0188,-0.0226,-0.0049,-0.0157,-0.0155,-0.0154,0,-0.0178,-0.0186,-0.0195,-0.0191,-0.019,-0.0191,-0.0156,-0.0159,-0.0124,-0.01,-0.0105,-0.0094,-0.0114,-0.0202,-0.0207,-0.0235,-0.0258,-0.0262,-0.0254,-0.0224,-0.021,-0.0072,-0.0021,-0.0254,-0.0133,-0.0135,-0.0137,0,-0.0131,-0.016,-0.0156,-0.0163,-0.0166,-0.0155,-0.0143,-0.0113,-0.0036,0.0027,0.0149,0.008,0.0182,0.0077,0.0025,-0.0057,0.0074,-0.0023,-0.0035,-0.003,-0.0027,-0.0025,-0.0177,-0.0042,-0.0042,-0.0043,-0.0043,0,-0.011,-0.0094,-0.012,-0.0108,-0.0037,-0.0078,0.0037,0.005,0.0157,0.0327,0.0249,0.0421,0.0263,0.0313,0.0153,0.0142,0.0182,-0.0014,0.0019,-0.0029,-0.003,-0.0205,-0.0337,-0.0035,-0.0037,-0.0038,-0.004,0,-0.0012,-0.0063,-0.0016,-0.0017,-0.0003,0.0073,0.0194,0.0323,0.0375,0.0619,0.0677,0.0761,0.0827,0.0668,0.0612,0.0408,0.0218,0.0303,0.0279,0.0301,-0.0006,-0.0135,-0.0168,-0.0283,0.0312,0.0313,0.0315,0,0.0067,0.0081,0.0106,0.0185,0.0206,0.0302,0.0421,0.0452,0.0607,0.0854,0.1021,0.116,0.1285,0.1201,0.0879,0.0654,0.0381,0.0455,0.0221,-0.0011,-0.0129,-0.0219,-0.0323,0.0251,0.0251,0.0252,0.0252,0,0.0271,0.026,0.0323,0.0441,0.0558,0.068,0.0822,0.095,0.1059,0.1254,0.1544,0.1664,0.1598,0.139,0.1063,0.084,0.0264,0.046,0.0219,-0.0195,-0.0296,-0.0392,0.0135,0.0258,0.0257,0.0257,0.0257,0.0256,0.0511,0.0593,0.0657,0.0772,0.0898,0.1045,0.1155,0.1322,0.1545,0.1801,0.1909,0.2108,0.1772,0.132,0.099,0.0348,0.0338,0.0089,-0.0034,-0.0091,-0.0278,0.0279,0.0421,0.0421,0.0421,0.0422,0.0422,0,0.0796,0.085,0.0993,0.111,0.125,0.1234,0.1435,0.1541,0.1783,0.2052,0.2252,0.2237,0.1736,0.1198,0.0367,-0.009,-0.0317,-0.0336,-0.0535,-0.0614,-0.0109,-0.0199,-0.0184,-0.0184,-0.0184,-0.0183,-0.0183,-0.0183,0.0985,0.1141,0.1141,0.1384,0.1458,0.1619,0.1703,0.187,0.2043,0.2342,0.2484,0.2581,0.22,0.0702,-0.0361,-0.0606,-0.0969,-0.0982,-0.1141,-0.0894,-0.0867,-0.0841,-0.0962,-0.1107,-0.1108,-0.164,-0.1645,-0.1649]}],[{"header":{"parameterUnit":"m.s-1","parameterCategory":2,"la1":30.2991,"la2":30.254,"lo1":-89.0895,"lo2":-89.0444,"dy":0.0017,"dx":0.0017,"nx":28,"ny":28,"refTime":"2025-11-06T09:00:00:Z","depth":"2","parameterNumber":2,"parameterNumberName":"U-component_of_CURRENTS"},"data":[0,0,0,0,0,0,0,0,0,0,0,0,0,0,0,0,0,0,0,0,0,0,0,0,0,0,0,0,0,0,0,0,0,0,0,0,0,0,0,0,0,0,0,0,0,0,0,0,0,0,0,0,0,0,0,0,0,0,0.1105,0.1106,0,0.1157,0.1158,0.1158,0.1192,0.1192,0.1193,0.1193,0.1217,0.1217,0.1218,0,0,0,0,0,0,0,0,0,0,0,0,0,0.103,0.1031,0.1105,0.1106,0.1107,0.1157,0.1158,0.1158,0.1192,0.1192,0.1193,0.1193,0.1217,0.1217,0.1218,0,0,0,0,0,0,0,0,0,0,0,0,0,0.1069,0.1031,0.1105,0.113,0.1133,0.1157,0.1158,0.1159,0.1192,0.1192,0.1193,0.1193,0.1217,0.1217,0.1218,0.1213,0,0,0.122,0.122,0,0,0,0,0,0,0,0,0.1067,0.1072,0.1126,0.1128,0.1132,0.1169,0.114,0.1176,0.1192,0.1168,0.1193,0.1193,0.1199,0.1201,0.1209,0.1214,0.1215,0.122,0.122,0.122,0.122,0,0,0,0,0,0,0,0.1064,0.107,0.1125,0.1126,0.113,0.1137,0.1143,0.1147,0.1179,0.117,0.1173,0.118,0.12,0.1208,0.1209,0.1215,0.122,0.122,0.122,0.1221,0.1254,0.1255,0,0,0,0,0,0,0.106,0.1067,0.1123,0.1126,0.1101,0.1138,0.1145,0.1156,0.118,0.1185,0.118,0.1182,0.1207,0.1209,0.121,0.1233,0.122,0.1221,0.1221,0.1253,0.1254,0.1255,0,0,0,0,0,0,0.1058,0.1064,0.1121,0.1098,0.1106,0.1139,0.1151,0.1157,0.1177,0.1188,0.1192,0.1196,0.1207,0.121,0.123,0.1233,0.1221,0.1221,0.1253,0.1254,0.1254,0.126,0,0,0,0,0,0,0.1056,0.1063,0.107,0.1098,0.1108,0.1144,0.1151,0.1158,0.118,0.1184,0.1202,0.1204,0.1208,0.1229,0.123,0.1234,0.1222,0.1252,0.1253,0.1254,0.1259,0.1261,0.1263,0,0,0,0,0,0.1053,0.1062,0.107,0.1077,0.1116,0.1145,0.115,0.1174,0.1181,0.1193,0.1208,0.1204,0.1236,0.123,0.1231,0.1235,0.1252,0.1253,0.1254,0.1259,0.1261,0.1263,0,0,0,0,0,0,0.1034,0.1067,0.1077,0.1096,0.1121,0.1151,0.1163,0.1178,0.12,0.1205,0.1213,0.1216,0.1235,0.1236,0.1229,0.1249,0.1242,0.1244,0.1245,0.1248,0.1249,0.1268,0.1222,0,0,0,0,0,0.1031,0.1047,0.108,0.1094,0.1108,0.1136,0.115,0.1169,0.1192,0.1203,0.1218,0.123,0.1239,0.1245,0.1255,0.1265,0.132,0.1268,0.127,0.1271,0.1288,0.1371,0.1383,0.1259,0.1259,0.1259,0,0,0.1026,0.1047,0.1055,0.1091,0.1111,0.1133,0.1146,0.1174,0.1192,0.12,0.1229,0.1239,0.1244,0.1259,0.1266,0.1261,0.134,0.1273,0.1274,0.1291,0.1374,0.1386,0.1397,0.126,0.1259,0.1259,0,0,0.1024,0.1045,0.1057,0.108,0.1116,0.1136,0.1146,0.1184,0.1201,0.1228,0.1237,0.1255,0.127,0.1277,0.128,0.1297,0.1348,0.1296,0.1318,0.1397,0.1409,0.142,0.1529,0.155,0.1295,0.1295,0.1295,0,0.1015,0.104,0.1065,0.1086,0.1107,0.1137,0.1159,0.1178,0.1219,0.1241,0.124,0.1288,0.1279,0.1306,0.1306,0.13,0.1374,0.1306,0.1402,0.1413,0.1424,0.1534,0.1556,0.1295,0.1295,0.1295,0.1295,0,0.1025,0.1048,0.1058,0.1094,0.1118,0.1144,0.1176,0.1205,0.1229,0.1255,0.13,0.1307,0.1346,0.1329,0.1317,0.1381,0.142,0.1397,0.1399,0.1437,0.155,0.1574,0.1296,0.1296,0.1296,0.1295,0,0,0.1001,0.1055,0.1059,0.1086,0.1129,0.1156,0.1183,0.123,0.1277,0.1301,0.1369,0.1355,0.1387,0.1393,0.139,0.1436,0.1559,0.145,0.1454,0.1565,0.1784,0.1728,0.1749,0.1565,0.1568,0.1571,0.1842,0,0.1004,0.1044,0.1069,0.1113,0.1142,0.118,0.1217,0.1262,0.1305,0.138,0.1394,0.1461,0.1403,0.1448,0.1478,0.1558,0.1618,0.1491,0.1726,0.1734,0.1683,0.1771,0.1612,0.1832,0.1865,0.1868,0.1871,0,0.1006,0.1038,0.1078,0.115,0.1168,0.1202,0.1287,0.1329,0.1418,0.146,0.1519,0.1561,0.1642,0.1587,0.1746,0.168,0.1733,0.1775,0.1787,0.1748,0.172,0.1794,0.1874,0.1911,0.1908,0.1905,0.1902,0,0.099,0.1047,0.1083,0.1104,0.1184,0.1221,0.1275,0.1358,0.1421,0.1542,0.1617,0.1707,0.1791,0.1871,0.1939,0.188,0.2126,0.2059,0.206,0.2059,0.1975,0.1959,0.2169,0.2169,0.2168,0.2168,0.2167,0,0.0989,0.1022,0.1087,0.1112,0.1192,0.124,0.134,0.1405,0.1518,0.1607,0.1677,0.1772,0.1867,0.1997,0.2035,0.2146,0.2218,0.2104,0.2128,0.1973,0.1954,0.2044,0.2025,0.2178,0.2176,0.2174,0.2172,0,0.0981,0.1009,0.107,0.1154,0.119,0.1257,0.139,0.1455,0.1567,0.1694,0.175,0.1889,0.2039,0.2129,0.2291,0.2279,0.2385,0.2389,0.2213,0.2209,0.2248,0.2227,0.2455,0.2456,0.2456,0.2456,0.2457,0,0.099,0.1012,0.1108,0.115,0.1196,0.1297,0.1361,0.1477,0.154,0.1748,0.1802,0.1991,0.2081,0.232,0.2348,0.2463,0.2433,0.2368,0.2179,0.2278,0.228,0.2258,0.2237,0.2104,0.2101,0.2099,0.2097,0,0.1016,0.1042,0.1096,0.1174,0.124,0.1318,0.1413,0.1469,0.1598,0.1718,0.1882,0.1992,0.2168,0.2213,0.2329,0.2339,0.2335,0.2322,0.2533,0.2017,0.1957,0.1954,0.1944,0.2078,0.208,0.2081,0.2082,0.2083,0.1046,0.1076,0.1127,0.1191,0.1266,0.1308,0.1342,0.1433,0.1545,0.1665,0.1825,0.1941,0.2043,0.2116,0.2124,0.2126,0.2238,0.2161,0.2164,0.2171,0.2043,0.1982,0.2088,0.209,0.2091,0.2093,0.2094,0,0.1037,0.106,0.1131,0.1181,0.1214,0.1272,0.1341,0.1341,0.1418,0.1585,0.1705,0.168,0.1766,0.1851,0.1845,0.189,0.1819,0.1805,0.171,0.1734,0.1754,0.1598,0.1529,0.1527,0.1525,0.1523,0,0,0.1032,0.1042,0.1047,0.108,0.1129,0.114,0.1152,0.1191,0.1287,0.1353,0.1444,0.1629,0.1806,0.1632,0.1646,0.1596,0.1625,0.1525,0.1987,0.1898,0.1914,0.1985,0.1776,0,0,0,0,0]},{"header":{"parameterUnit":"m.s-1","parameterCategory":2,"la1":30.2991,"la2":30.254,"lo1":-89.0895,"lo2":-89.0444,"dy":0.0017,"dx":0.0017,"nx":28,"ny":28,"refTime":"2025-11-06T09:00:00:Z","depth":"2","parameterNumber":3,"parameterNumberName":"V-component_of_CURRENTS"},"data":[0,0,0,0,0,0,0,0,0,0,0,0,0,0,0,0,0,0,0,0,0,0,0,0,0,0,0,0,0,0,0,0,0,0,0,0,0,0,0,0,0,0,0,0,0,0,0,0,0,0,0,0,0,0,0,0,0,0,-0.0327,-0.0327,0,-0.0381,-0.0382,-0.0382,-0.042,-0.0421,-0.0421,-0.0421,-0.0483,-0.0484,-0.0485,0,0,0,0,0,0,0,0,0,0,0,0,0,-0.0279,-0.028,-0.0326,-0.0327,-0.0328,-0.0381,-0.0382,-0.0382,-0.042,-0.0421,-0.0421,-0.0421,-0.0482,-0.0484,-0.0485,0,0,0,0,0,0,0,0,0,0,0,0,0,-0.0313,-0.028,-0.0326,-0.0353,-0.0356,-0.0381,-0.0382,-0.0383,-0.042,-0.0421,-0.0421,-0.0421,-0.0482,-0.0484,-0.0486,-0.049,0,0,-0.0492,-0.0493,0,0,0,0,0,0,0,0,-0.0311,-0.0315,-0.0348,-0.0351,-0.0355,-0.0394,-0.0388,-0.0419,-0.042,-0.0396,-0.0421,-0.0422,-0.0453,-0.0458,-0.0467,-0.0493,-0.0495,-0.0492,-0.0493,-0.0494,-0.0495,0,0,0,0,0,0,0,-0.0309,-0.0313,-0.0348,-0.0349,-0.0353,-0.0371,-0.0376,-0.0394,-0.0422,-0.0398,-0.0401,-0.0407,-0.0455,-0.0465,-0.0469,-0.0496,-0.0492,-0.0494,-0.0495,-0.0496,-0.0554,-0.0555,0,0,0,0,0,0,-0.03,-0.0311,-0.0346,-0.035,-0.0334,-0.0371,-0.0377,-0.0381,-0.0421,-0.0428,-0.0406,-0.0408,-0.0461,-0.0466,-0.0471,-0.0501,-0.0494,-0.0496,-0.0497,-0.0554,-0.0554,-0.0555,0,0,0,0,0,0,-0.0299,-0.0303,-0.0344,-0.0332,-0.0338,-0.0371,-0.0376,-0.0382,-0.0398,-0.0428,-0.0434,-0.0417,-0.0462,-0.0468,-0.0495,-0.0503,-0.0497,-0.0499,-0.0554,-0.0554,-0.0555,-0.0546,0,0,0,0,0,0,-0.0297,-0.0302,-0.0305,-0.0331,-0.0338,-0.0359,-0.0376,-0.0383,-0.04,-0.0404,-0.0438,-0.0444,-0.0463,-0.0492,-0.0497,-0.0506,-0.05,-0.0553,-0.0554,-0.0555,-0.0546,-0.0547,-0.0547,0,0,0,0,0,-0.0296,-0.0294,-0.0304,-0.0309,-0.034,-0.0359,-0.0365,-0.039,-0.04,-0.0406,-0.0433,-0.0444,-0.0499,-0.0494,-0.05,-0.0509,-0.0553,-0.0554,-0.0554,-0.0546,-0.0547,-0.0547,0,0,0,0,0,0,-0.0274,-0.0299,-0.031,-0.0316,-0.0337,-0.0366,-0.0374,-0.039,-0.0416,-0.0421,-0.0449,-0.0457,-0.0484,-0.0496,-0.0489,-0.0528,-0.0527,-0.0529,-0.0519,-0.052,-0.052,-0.0521,-0.0502,0,0,0,0,0,-0.027,-0.0276,-0.0303,-0.0308,-0.0317,-0.0346,-0.0358,-0.0375,-0.04,-0.0412,-0.0438,-0.0465,-0.049,-0.0504,-0.0527,-0.0546,-0.0551,-0.0556,-0.0556,-0.0556,-0.0561,-0.0571,-0.0572,-0.0557,-0.0557,-0.0557,0,0,-0.0264,-0.0278,-0.0282,-0.0304,-0.0323,-0.0335,-0.0354,-0.0372,-0.0385,-0.0414,-0.0442,-0.0468,-0.0496,-0.0522,-0.0534,-0.0533,-0.0561,-0.0557,-0.0557,-0.0562,-0.0572,-0.0573,-0.0574,-0.0558,-0.0558,-0.0558,0,0,-0.025,-0.0266,-0.0267,-0.0283,-0.0309,-0.0327,-0.0332,-0.0364,-0.0382,-0.0411,-0.0436,-0.0468,-0.0504,-0.0528,-0.0544,-0.0558,-0.0563,-0.0563,-0.0566,-0.0575,-0.0576,-0.0577,-0.0575,-0.0577,-0.0562,-0.0562,-0.0562,0,-0.0242,-0.0248,-0.027,-0.0277,-0.029,-0.0322,-0.0329,-0.0351,-0.0389,-0.0406,-0.0419,-0.0483,-0.0508,-0.054,-0.0552,-0.0559,-0.056,-0.0561,-0.0575,-0.0576,-0.0577,-0.0575,-0.0577,-0.0562,-0.0562,-0.0562,-0.0562,0,-0.023,-0.0239,-0.024,-0.026,-0.0277,-0.0287,-0.032,-0.0341,-0.037,-0.0398,-0.044,-0.0479,-0.0513,-0.053,-0.055,-0.0574,-0.057,-0.0573,-0.0572,-0.0578,-0.0576,-0.0577,-0.0562,-0.0562,-0.0562,-0.0562,0,0,-0.0205,-0.0227,-0.023,-0.0236,-0.027,-0.028,-0.0305,-0.0338,-0.0347,-0.0401,-0.0415,-0.0484,-0.0506,-0.0526,-0.0551,-0.0572,-0.0586,-0.0579,-0.058,-0.0574,-0.0597,-0.0608,-0.061,-0.0589,-0.0589,-0.059,-0.0588,0,-0.0192,-0.0193,-0.0213,-0.0222,-0.0227,-0.0264,-0.028,-0.0316,-0.0346,-0.0366,-0.0424,-0.0442,-0.0501,-0.0504,-0.0544,-0.0559,-0.0591,-0.0585,-0.0596,-0.0596,-0.0602,-0.0613,-0.0582,-0.0579,-0.059,-0.059,-0.059,0,-0.0177,-0.018,-0.0183,-0.02,-0.0206,-0.022,-0.0248,-0.0264,-0.0304,-0.0323,-0.0368,-0.0395,-0.0436,-0.0475,-0.0538,-0.0529,-0.0575,-0.06,-0.06,-0.0617,-0.061,-0.0577,-0.0582,-0.0593,-0.0592,-0.0592,-0.0592,0,-0.0149,-0.016,-0.0161,-0.0169,-0.0194,-0.0206,-0.0221,-0.0257,-0.0247,-0.0281,-0.026,-0.0338,-0.0334,-0.0415,-0.0482,-0.0502,-0.0538,-0.0563,-0.0626,-0.0626,-0.0606,-0.0604,-0.0628,-0.0628,-0.0628,-0.0628,-0.0628,0,-0.0127,-0.0131,-0.0147,-0.0149,-0.0142,-0.0176,-0.0163,-0.0189,-0.0188,-0.0158,-0.0226,-0.0202,-0.0318,-0.0352,-0.0447,-0.0529,-0.0511,-0.0632,-0.0632,-0.0602,-0.06,-0.0619,-0.0618,-0.0628,-0.0628,-0.0628,-0.0628,0,-0.0108,-0.0117,-0.0115,-0.0131,-0.0128,-0.0126,-0.0102,-0.0082,-0.009,-0.0041,-0.0034,-0.0078,-0.0147,-0.0264,-0.037,-0.0455,-0.0543,-0.0585,-0.054,-0.0537,-0.0637,-0.0636,-0.0657,-0.0657,-0.0658,-0.0658,-0.0658,0,-0.0105,-0.0102,-0.0092,-0.0069,-0.0076,-0.0059,-0.0033,-0.0035,0.0004,0.0041,0.0078,0.0029,0.0004,-0.0154,-0.034,-0.0504,-0.0552,-0.0569,-0.0627,-0.0645,-0.0643,-0.0641,-0.0639,-0.0587,-0.0587,-0.0587,-0.0587,0,-0.0101,-0.0097,-0.0085,-0.0029,0.0002,0.0051,0.0089,0.0143,0.016,0.0221,0.0276,0.0269,0.0082,-0.0075,-0.0313,-0.0437,-0.0544,-0.0572,-0.0583,-0.0593,-0.0582,-0.0579,-0.0579,-0.0584,-0.0585,-0.0585,-0.0585,-0.0585,-0.0101,-0.008,-0.0047,0.0007,0.0065,0.0148,0.0211,0.0281,0.0371,0.0467,0.0425,0.0452,0.0218,-0.0071,-0.0295,-0.0534,-0.0561,-0.0618,-0.0617,-0.0617,-0.0618,-0.0609,-0.0616,-0.0616,-0.0616,-0.0617,-0.0617,0,-0.0094,-0.0058,-0.0007,0.0063,0.0145,0.0173,0.0289,0.0373,0.0511,0.0599,0.0649,0.0487,0.0291,0.0024,-0.0318,-0.0534,-0.0557,-0.0603,-0.0577,-0.0578,-0.0579,-0.0577,-0.0565,-0.0565,-0.0565,-0.0565,0,0,-0.0092,-0.0041,-0.0008,0.0114,0.0186,0.0321,0.0406,0.0545,0.0652,0.0759,0.0803,0.0744,0.0425,0.0194,-0.0142,-0.0332,-0.0397,-0.0377,-0.0398,-0.0329,-0.0327,-0.0573,-0.057,0,0,0,0,0]}],[{"header":{"parameterUnit":"m.s-1","parameterCategory":2,"la1":30.2991,"la2":30.254,"lo1":-89.0895,"lo2":-89.0444,"dy":0.0017,"dx":0.0017,"nx":28,"ny":28,"refTime":"2025-11-06T09:00:00:Z","depth":"4","parameterNumber":2,"parameterNumberName":"U-component_of_CURRENTS"},"data":[0,0,0,0,0,0,0,0,0,0,0,0,0,0,0,0,0,0,0,0,0,0,0,0,0,0,0,0,0,0,0,0,0,0,0,0,0,0,0,0,0,0,0,0,0,0,0,0,0,0,0,0,0,0,0,0,0,0,0.0619,0.062,0,0.0669,0.0669,0.067,0.0707,0.0708,0.0708,0.0709,0.0763,0.0764,0.0765,0,0,0,0,0,0,0,0,0,0,0,0,0,0.0559,0.056,0.0619,0.062,0.0621,0.0668,0.0669,0.067,0.0707,0.0708,0.0708,0.0709,0.0763,0.0764,0.0765,0,0,0,0,0,0,0,0,0,0,0,0,0,0.0594,0.056,0.0619,0.0646,0.0649,0.0668,0.0669,0.067,0.0707,0.0708,0.0708,0.0709,0.0762,0.0764,0.0765,0.0762,0,0,0.077,0.0771,0,0,0,0,0,0,0,0,0.0592,0.0596,0.0641,0.0644,0.0647,0.0683,0.0668,0.0701,0.0707,0.0684,0.0709,0.0709,0.0737,0.0741,0.0747,0.0765,0.0767,0.077,0.0771,0.0772,0.0772,0,0,0,0,0,0,0,0.0589,0.0594,0.0638,0.0642,0.0646,0.0656,0.0661,0.0674,0.0706,0.0686,0.0689,0.0696,0.0739,0.0746,0.0749,0.0768,0.077,0.0772,0.0773,0.0773,0.0849,0.085,0,0,0,0,0,0,0.0584,0.0592,0.0637,0.064,0.0621,0.0656,0.0663,0.067,0.0706,0.0712,0.0695,0.0697,0.0743,0.0747,0.0751,0.0821,0.0772,0.0773,0.0774,0.0848,0.0849,0.085,0,0,0,0,0,0,0.0583,0.0588,0.0635,0.0617,0.0624,0.0657,0.0665,0.0671,0.07,0.0713,0.0719,0.0721,0.0743,0.0749,0.0786,0.082,0.0774,0.0776,0.0846,0.0848,0.0849,0.0915,0,0,0,0,0,0,0.0581,0.0587,0.06,0.0617,0.0625,0.066,0.0665,0.0672,0.0702,0.0706,0.0736,0.0741,0.0744,0.0784,0.0788,0.0822,0.0777,0.0845,0.0847,0.0849,0.0911,0.0918,0.0924,0,0,0,0,0,0.0578,0.059,0.06,0.0607,0.0639,0.066,0.0666,0.069,0.0703,0.0718,0.0744,0.0741,0.0799,0.0786,0.0791,0.0826,0.0844,0.0846,0.0849,0.0908,0.0917,0.0924,0,0,0,0,0,0,0.0571,0.0595,0.0607,0.0626,0.0649,0.0668,0.0685,0.0702,0.0733,0.0743,0.0756,0.0762,0.0804,0.0804,0.0789,0.0851,0.082,0.0824,0.0864,0.0872,0.0879,0.0903,0.0778,0,0,0,0,0,0.0574,0.0591,0.0614,0.0631,0.0644,0.0669,0.0685,0.0702,0.0726,0.0742,0.0764,0.0787,0.0813,0.0835,0.0847,0.0885,0.0882,0.0909,0.0916,0.0921,0.0943,0.0971,0.0982,0.0858,0.0858,0.0858,0,0,0.0575,0.0592,0.0601,0.0631,0.065,0.0673,0.068,0.0709,0.0738,0.0742,0.0792,0.0808,0.0825,0.0868,0.0887,0.0878,0.095,0.0924,0.0929,0.0949,0.0974,0.0987,0.0998,0.0859,0.0859,0.0859,0,0,0.0578,0.0601,0.0615,0.0638,0.0671,0.0687,0.0701,0.0733,0.0761,0.0805,0.0817,0.0857,0.0893,0.0918,0.0934,0.0984,0.0977,0.099,0.1056,0.1082,0.1093,0.1102,0.1093,0.1101,0.1002,0.1002,0.1002,0,0.058,0.0603,0.0623,0.0646,0.0669,0.0696,0.0721,0.0752,0.0795,0.0822,0.0829,0.0904,0.0918,0.098,0.1012,0.1001,0.1009,0.1026,0.1092,0.1102,0.111,0.1098,0.1106,0.1005,0.1005,0.1005,0.1004,0,0.0591,0.062,0.0632,0.067,0.0696,0.0722,0.0763,0.0797,0.0833,0.0866,0.0936,0.0968,0.1015,0.1031,0.105,0.1125,0.1106,0.109,0.1074,0.1127,0.111,0.1118,0.101,0.1009,0.1008,0.1007,0,0,0.0565,0.0628,0.0633,0.0661,0.0714,0.0734,0.0785,0.0837,0.0882,0.0937,0.0998,0.1069,0.1098,0.112,0.1144,0.1194,0.1259,0.1193,0.1193,0.1188,0.1307,0.1268,0.1272,0.1268,0.127,0.1272,0.1262,0,0.057,0.0612,0.0646,0.0695,0.0721,0.0767,0.0814,0.0868,0.0923,0.0986,0.1044,0.1109,0.1128,0.1171,0.1223,0.125,0.1287,0.1262,0.1254,0.1253,0.1217,0.1283,0.1279,0.1268,0.1269,0.127,0.1271,0,0.0567,0.0599,0.0644,0.0715,0.0732,0.077,0.0847,0.0897,0.0986,0.1034,0.1112,0.1156,0.1246,0.125,0.1329,0.1319,0.1332,0.1346,0.1345,0.1299,0.123,0.1209,0.1285,0.1284,0.1283,0.1282,0.1281,0,0.0529,0.0598,0.0634,0.0659,0.074,0.0777,0.0827,0.0913,0.097,0.1076,0.1129,0.1217,0.1277,0.132,0.1372,0.1359,0.1445,0.1402,0.1367,0.1362,0.1367,0.1357,0.1457,0.1457,0.1457,0.1457,0.1457,0,0.0516,0.0546,0.0626,0.0647,0.0704,0.0769,0.0846,0.0906,0.1007,0.1082,0.1163,0.1236,0.1312,0.1369,0.1388,0.1413,0.1446,0.1401,0.1376,0.1389,0.1382,0.1371,0.1361,0.1456,0.1457,0.1457,0.1457,0,0.047,0.052,0.0567,0.0656,0.0689,0.0732,0.0855,0.0908,0.1011,0.111,0.1151,0.1266,0.1347,0.1397,0.1461,0.1429,0.1449,0.1444,0.1455,0.1426,0.1331,0.1325,0.138,0.1379,0.1378,0.1378,0.1377,0,0.045,0.0467,0.0562,0.0598,0.0645,0.0727,0.0782,0.0897,0.0959,0.1126,0.1163,0.1286,0.1355,0.1394,0.1452,0.1462,0.1459,0.1429,0.1397,0.1363,0.1333,0.1328,0.1323,0.1376,0.1375,0.1375,0.1375,0,0.0407,0.0444,0.0487,0.0562,0.0624,0.069,0.0784,0.0827,0.0965,0.1062,0.1169,0.1236,0.1323,0.1372,0.1405,0.141,0.1427,0.142,0.142,0.139,0.1358,0.1328,0.1324,0.1372,0.1372,0.1373,0.1373,0,0.0375,0.0396,0.0459,0.0522,0.0589,0.0642,0.0701,0.0793,0.0871,0.1052,0.1088,0.1219,0.132,0.1348,0.1379,0.139,0.1362,0.1299,0.1305,0.1309,0.1298,0.1249,0.123,0,0,0,0,0,0.0347,0.037,0.0419,0.0487,0.0548,0.0591,0.0695,0.0757,0.089,0.0942,0.102,0.1107,0.1194,0.1255,0.1252,0.1335,0.135,0.1325,0.1276,0.1355,0.1359,0.1357,0,0,0,0,0,0,0.0328,0.037,0.04,0.044,0.0478,0.0541,0.0603,0.0693,0.0735,0.0875,0.0926,0.1034,0.1124,0.1182,0.1228,0.1246,0.1193,0.1405,0.1402,0.1353,0.1356,0.1359,0.1358,0,0,0,0,0]},{"header":{"parameterUnit":"m.s-1","parameterCategory":2,"la1":30.2991,"la2":30.254,"lo1":-89.0895,"lo2":-89.0444,"dy":0.0017,"dx":0.0017,"nx":28,"ny":28,"refTime":"2025-11-06T09:00:00:Z","depth":"4","parameterNumber":3,"parameterNumberName":"V-component_of_CURRENTS"},"data":[0,0,0,0,0,0,0,0,0,0,0,0,0,0,0,0,0,0,0,0,0,0,0,0,0,0,0,0,0,0,0,0,0,0,0,0,0,0,0,0,0,0,0,0,0,0,0,0,0,0,0,0,0,0,0,0,0,0,0.0114,0.0114,0,0.0073,0.0072,0.0072,0.0034,0.0033,0.0033,0.0033,-0.0039,-0.0041,-0.0042,0,0,0,0,0,0,0,0,0,0,0,0,0,0.0134,0.0134,0.0115,0.0114,0.0114,0.0073,0.0072,0.0071,0.0034,0.0033,0.0033,0.0032,-0.0039,-0.004,-0.0042,0,0,0,0,0,0,0,0,0,0,0,0,0,0.0111,0.0134,0.0115,0.009,0.0088,0.0073,0.0072,0.0071,0.0034,0.0033,0.0033,0.0032,-0.0038,-0.004,-0.0043,-0.0045,0,0,-0.005,-0.0051,0,0,0,0,0,0,0,0,0.0113,0.0111,0.0094,0.0092,0.0089,0.0058,0.0053,0.0031,0.0034,0.0054,0.0033,0.0032,-0.0008,-0.0013,-0.002,-0.0049,-0.0052,-0.005,-0.0051,-0.0052,-0.0053,0,0,0,0,0,0,0,0.0114,0.0112,0.0097,0.0094,0.0091,0.0072,0.0068,0.0048,0.0025,0.0052,0.0049,0.0046,-0.001,-0.0018,-0.0022,-0.0053,-0.005,-0.0052,-0.0053,-0.0054,-0.0092,-0.0091,0,0,0,0,0,0,0.0123,0.0114,0.0099,0.0096,0.0101,0.0072,0.0068,0.0068,0.0026,0.002,0.0046,0.0044,-0.0014,-0.002,-0.0025,-0.0022,-0.0052,-0.0054,-0.0056,-0.0092,-0.0092,-0.0091,0,0,0,0,0,0,0.0124,0.0122,0.01,0.0104,0.01,0.0073,0.0073,0.0068,0.0055,0.0022,0.0015,0.0039,-0.0014,-0.0022,-0.0043,-0.0025,-0.0055,-0.0058,-0.0093,-0.0092,-0.0091,-0.0021,0,0,0,0,0,0,0.0125,0.0123,0.0125,0.0105,0.01,0.0098,0.0074,0.0067,0.0054,0.0051,0.0013,0.0006,-0.0015,-0.004,-0.0046,-0.0029,-0.0059,-0.0093,-0.0092,-0.0092,-0.0024,-0.0018,-0.0013,0,0,0,0,0,0.0126,0.0137,0.0125,0.0123,0.0104,0.0099,0.0095,0.0073,0.0055,0.0057,0.0027,0.0007,-0.0039,-0.0041,-0.0048,-0.0032,-0.0093,-0.0093,-0.0092,-0.0026,-0.0019,-0.0013,0,0,0,0,0,0,0.0146,0.0134,0.012,0.0127,0.0115,0.0093,0.0093,0.0074,0.0052,0.0046,0.0009,0.0001,-0.0011,-0.0034,-0.0036,-0.0042,-0.0068,-0.0069,-0.0016,-0.001,-0.0004,0.0009,-0.0061,0,0,0,0,0,0.0152,0.0158,0.014,0.0145,0.0141,0.0115,0.0108,0.0093,0.0072,0.0061,0.0035,0.0007,-0.0011,-0.0021,-0.0043,-0.0047,-0.0089,-0.0041,-0.0035,-0.0031,-0.0026,-0.0075,-0.0074,-0.0088,-0.0088,-0.0088,0,0,0.0162,0.0155,0.0158,0.0149,0.0137,0.0145,0.0109,0.0105,0.0112,0.0057,0.0055,0.0022,-0.001,-0.0014,-0.002,-0.003,-0.0051,-0.003,-0.0025,-0.0023,-0.0074,-0.0073,-0.0071,-0.0088,-0.0088,-0.0088,0,0,0.0192,0.0179,0.0195,0.0189,0.0177,0.0165,0.0165,0.0143,0.0134,0.0124,0.009,0.007,0.0036,0.0026,0.0014,0.0035,-0.0024,0.0022,0.0065,0.0018,0.0018,0.0018,-0.0041,-0.0046,0.003,0.003,0.003,0,0.0202,0.0218,0.0198,0.0212,0.0214,0.0178,0.0196,0.0187,0.0161,0.0156,0.0132,0.0083,0.0061,0.0059,0.0069,0.0051,-0.0001,0.0046,0.0025,0.0024,0.0023,-0.0038,-0.0045,0.0033,0.0033,0.0033,0.0032,0,0.0243,0.0254,0.0264,0.0271,0.0272,0.0281,0.0268,0.0264,0.0241,0.0223,0.0204,0.0165,0.0132,0.013,0.0106,0.0096,0.0052,0.0034,0.0011,0.0029,-0.0036,-0.0045,0.0038,0.0037,0.0036,0.0035,0,0,0.0264,0.0289,0.0291,0.03,0.0303,0.0304,0.0326,0.0326,0.0317,0.0296,0.0278,0.0265,0.0222,0.0205,0.017,0.0141,0.0095,0.0087,0.0083,0.0033,-0.0034,-0.0043,-0.0055,0.0061,0.006,0.006,-0.008,0,0.0298,0.0338,0.0344,0.0376,0.0391,0.0379,0.0394,0.0388,0.0361,0.0333,0.0304,0.0265,0.0257,0.022,0.0198,0.0106,0.0075,0.0133,-0.0048,-0.0053,-0.006,-0.0063,0.0057,-0.0086,-0.0088,-0.009,-0.0091,0,0.033,0.0352,0.0394,0.0415,0.0419,0.0434,0.0431,0.0438,0.0406,0.0379,0.0348,0.0294,0.0256,0.023,0.0119,0.0145,0.0068,0.0007,-0.0001,-0.0038,-0.0078,-0.0108,-0.0108,-0.0106,-0.0105,-0.0104,-0.0103,0,0.0336,0.0381,0.0414,0.0423,0.0445,0.0459,0.0466,0.0449,0.0438,0.0391,0.035,0.0302,0.0237,0.0162,0.0044,0.0064,-0.0106,-0.0096,-0.017,-0.0173,-0.0155,-0.0153,-0.0171,-0.0171,-0.0171,-0.0171,-0.017,0,0.0358,0.0378,0.0418,0.0429,0.045,0.0466,0.0467,0.046,0.0434,0.0409,0.0362,0.0312,0.021,0.0102,0.0024,-0.0112,-0.0126,-0.0167,-0.0206,-0.0123,-0.0117,-0.0162,-0.0159,-0.0176,-0.0175,-0.0174,-0.0173,0,0.0341,0.0376,0.0401,0.0438,0.0449,0.0453,0.0465,0.0453,0.0434,0.0392,0.0372,0.0285,0.0156,0.0043,-0.0115,-0.0157,-0.0273,-0.0318,-0.0243,-0.0277,-0.03,-0.0292,-0.0398,-0.0399,-0.04,-0.0401,-0.0402,0,0.0328,0.0345,0.0389,0.0392,0.0406,0.0423,0.0427,0.0442,0.043,0.038,0.0351,0.0224,0.0158,-0.0069,-0.0176,-0.0341,-0.0347,-0.0412,-0.0313,-0.0294,-0.0322,-0.0312,-0.0302,-0.0404,-0.0404,-0.0405,-0.0405,0,0.0284,0.0304,0.032,0.0342,0.0354,0.0378,0.0394,0.0395,0.0406,0.0384,0.0327,0.0228,0.0072,-0.0065,-0.0222,-0.0323,-0.0365,-0.0424,-0.042,-0.0327,-0.0303,-0.0328,-0.0317,-0.0409,-0.0409,-0.0408,-0.0408,0,0.0228,0.0228,0.0255,0.0279,0.0299,0.0334,0.0355,0.0362,0.0368,0.0348,0.0324,0.0193,0.0116,-0.0061,-0.0193,-0.031,-0.0303,-0.0304,-0.0306,-0.0303,-0.0218,-0.017,-0.0272,0,0,0,0,0,0.0168,0.0179,0.0189,0.023,0.0259,0.0291,0.0328,0.0354,0.0381,0.0348,0.035,0.0225,0.0048,-0.0037,-0.0153,-0.0216,-0.034,-0.0355,-0.0346,-0.0432,-0.0427,-0.0342,0,0,0,0,0,0,0.012,0.0128,0.017,0.0197,0.0226,0.0268,0.0307,0.0331,0.0326,0.0335,0.0238,0.0211,0.0025,0.0112,-0.0152,-0.019,-0.0194,-0.0439,-0.044,-0.0435,-0.043,-0.0427,-0.0337,0,0,0,0,0]}]]